This is the latest recevied weather packets stored in our database for station/object W5LND-10. If no packets are shown the sender has not sent any weather packets the latest 10 day(s).
| Time | Temp. | Humidity | Pressure | Rain* | Wind** | Luminosity | Snow |
|---|---|---|---|---|---|---|---|
| 1777602083 | 15.56° C | 74% | 1012.2 hPa | 0 mm | - | 0 W/m² | - |
| 1777601783 | 15.56° C | 73% | 1012.2 hPa | 0 mm | - | 0 W/m² | - |
| 1777601483 | 16.11° C | 73% | 1012.2 hPa | 0 mm | - | 0 W/m² | - |
| 1777601183 | 16.11° C | 73% | 1012.1 hPa | 0 mm | - | 0 W/m² | - |
| 1777600883 | 16.11° C | 72% | 1012.1 hPa | 0 mm | - | 0 W/m² | - |
| 1777600583 | 16.11° C | 72% | 1012.2 hPa | 0 mm | - | 0 W/m² | - |
| 1777600283 | 16.11° C | 72% | 1012.2 hPa | 0 mm | - | 0 W/m² | - |
| 1777599983 | 16.11° C | 72% | 1011.9 hPa | 0 mm | - | 0 W/m² | - |
| 1777599683 | 16.11° C | 71% | 1011.7 hPa | 0 mm | - | 0 W/m² | - |
| 1777599383 | 16.11° C | 71% | 1011.7 hPa | 0 mm | - | 0 W/m² | - |
| 1777599083 | 16.11° C | 71% | 1011.9 hPa | 0 mm | - | 0 W/m² | - |
| 1777598783 | 16.11° C | 71% | 1011.7 hPa | 0 mm | - | 0 W/m² | - |
| 1777598485 | 16.67° C | 70% | 1011.5 hPa | 0 mm | - | 0 W/m² | - |
| 1777598183 | 16.67° C | 70% | 1011.4 hPa | 0 mm | - | 7 W/m² | - |
| 1777597883 | 16.67° C | 70% | 1011.6 hPa | 0 mm | - | 11 W/m² | - |
| 1777597583 | 16.67° C | 70% | 1011.5 hPa | 0 mm | - | 14 W/m² | - |
| 1777597283 | 16.67° C | 69% | 1011.5 hPa | 0 mm | - | 21 W/m² | - |
| 1777596983 | 16.67° C | 69% | 1011.5 hPa | 0 mm | - | 21 W/m² | - |
| 1777596683 | 16.67° C | 69% | 1011.2 hPa | 0 mm | - | 28 W/m² | - |
| 1777596383 | 16.67° C | 68% | 1010.8 hPa | 0 mm | - | 40 W/m² | - |
| 1777596083 | 17.22° C | 68% | 1010.9 hPa | 0 mm | - | 39 W/m² | - |
| 1777595783 | 17.22° C | 67% | 1010.8 hPa | 0 mm | - | 40 W/m² | - |
| 1777595483 | 17.22° C | 67% | 1010.5 hPa | 0 mm | - | 56 W/m² | - |
| 1777595183 | 17.22° C | 66% | 1010.3 hPa | 0 mm | - | 72 W/m² | - |
| 1777594883 | 17.78° C | 66% | 1010.3 hPa | 0 mm | - | 88 W/m² | - |
* Rain latest hour (hover to see other rain measurements)
** Current wind speed in m/s (hover to see current wind gust speed)